Terminal Aerodrome Forecast
Issued by NWS

Home | Current Version | Previous Version | Text Only | Print | Product List | Glossary On
Versions: 1 2 3 4 5 6 7 8 9 10 11 12 13 14 15 16 17 18 19 20 21 22 23 24 25 26 27
000
FTUS43 KLSX 240200 AAA
TAFUIN
TAF AMD
KUIN 240225Z 2402/2424 31005KT P6SM BKN030
     FM240500 32006KT P6SM OVC025
     FM241200 34010KT P6SM OVC008
     FM241500 33012G20KT P6SM -RASN OVC008
     FM241800 31014G22KT P6SM OVC008=

USA.gov is the U.S. government's official web portal to all federal, state and local government web resources and services.